Regional Weather Roundup
Issued by NWS

Home | Current Version | Previous Version | Text Only | Print | Product List | Glossary On
Versions: 1 2 3 4 5 6 7 8 9 10 11 12 13 14 15 16 17 18 19 20 21 22 23 24 25 26 27 28 29 30 31 32 33 34 35 36 37 38 39 40 41 42 43 44 45 46 47 48 49 50
000
ASUS43 KMKX 301820
RWRWI

WISCONSIN REGIONAL WEATHER ROUNDUP
NATIONAL WEATHER SERVICE MILWAUKEE/SULLIVAN WI
100 PM CDT SAT MAY 30 2015

NOTE: "FAIR" INDICATES FEW OR NO CLOUDS BELOW 12,000 FEET WITH NO
SIGNIFICANT WEATHER AND/OR OBSTRUCTIONS TO VISIBILITY.

WIZ001-002-006>008-014>016-023>028-301900-
NORTHWEST WISCONSIN

CITY           SKY/WX    TMP DP  RH WIND       PRES   REMARKS
SUPERIOR ARPT  SUNNY     53  37  54 E9        30.29S
ASHLAND        SUNNY     51  38  60 E10       30.31R
6HR MIN TEMP:  47; 6HR MAX TEMP:  53;

HAYWARD        CLOUDY    52  38  58 NE16      30.27R
6HR MIN TEMP:  47; 6HR MAX TEMP:  52;

SIREN          PTSUNNY   55  39  54 N10       30.26R
CUMBERLAND     CLOUDY    52  41  66 NE9       30.25R
RICE LAKE      CLOUDY    53  42  66 NE12G17   30.26R
CHETEK         CLOUDY    51  44  75 N9G17     30.24R
LADYSMITH      CLOUDY    53  44  71 N13G20    30.25R
EAU CLAIRE     CLOUDY    55  45  68 N14       30.21R
6HR MIN TEMP:  51; 6HR MAX TEMP:  56;

MENOMONIE      CLOUDY    57  45  63 N10       30.23R
6HR MIN TEMP:  51; 6HR MAX TEMP:  57;

NEW RICHMOND   CLOUDY    56  43  63 NE9G17    30.24S
OSCEOLA        CLOUDY    56  43  61 N9        30.27F
$$

WIZ003>005-009-010-017-018-301900-
NORTH CENTRAL WISCONSIN

CITY           SKY/WX    TMP DP  RH WIND       PRES   REMARKS
MANITOWISH WTR CLOUDY    46  43  90 N9        30.24S
ARBOR VITAE    CLOUDY    52  45  76 NE12      30.23R
WOODRUFF       CLOUDY    52  45  76 NE12      30.23R
RHINELANDER    CLOUDY    50  42  74 NE12G17   30.22R
6HR MIN TEMP:  48; 6HR MAX TEMP:  53; 6HR PCP: TRACE;

EAGLE RIVER    CLOUDY    47  40  76 NE13      30.23R
LAND O LAKES   CLOUDY    46  42  88 N8        30.25R
PHILLIPS       CLOUDY    51  43  76 NE14      30.23R
TOMAHAWK       CLOUDY    51  45  80 N9        30.21R
MEDFORD        CLOUDY    53  46  76 N13       30.19R
MERRILL        CLOUDY    55  45  68 NE8G18    30.19S
$$

WIZ029-030-035-036-043>047-301900-
CENTRAL WISCONSIN

CITY           SKY/WX    TMP DP  RH WIND       PRES   REMARKS
WAUSAU         CLOUDY    57  44  62 NE9G21    30.17R
6HR MIN TEMP:  53; 6HR MAX TEMP:  58; 6HR PCP: TRACE;

MOSINEE        CLOUDY    55  46  71 NE14G20   30.18R
MARSHFIELD     CLOUDY    57  47  69 E10       30.17R
6HR MIN TEMP:  53; 6HR MAX TEMP:  58; 6HR PCP: TRACE;

STEVENS POINT  CLOUDY    52  48  86 E6        30.18R
WAUPACA        CLOUDY    56  48  73 NE7       30.17S
WAUTOMA        CLOUDY    54  52  94 NE12      30.17R
WISC RAPIDS    CLOUDY    56  47  71 NE9       30.18R
6HR MIN TEMP:  55; 6HR MAX TEMP:  57; 6HR PCP:  0.03;

CAMP DOUGLAS   CLOUDY    55  55 100 VRB5      30.15R
6HR MIN TEMP:  54; 6HR MAX TEMP:  57; 6HR PCP:  0.10;

$$

WIZ011>013-019>022-031-037>040-048>050-301900-
NORTHEAST WISCONSIN

CITY           SKY/WX    TMP DP  RH WIND       PRES   REMARKS
ANTIGO         CLOUDY    53  44  74 N15       30.19R
SHAWANO        CLOUDY    57  47  67 N12       30.17S
OCONTO         CLOUDY    55  45  69 NE12      30.18R
STURGEON BAY   CLOUDY    50  39  66 N21G26    30.20R
6HR MIN TEMP:  48; 6HR MAX TEMP:  52;

GREEN BAY      LGT RAIN  53  47  79 N10       30.17S
6HR MIN TEMP:  52; 6HR MAX TEMP:  53; 6HR PCP:  0.16;

MANITOWOC      NOT AVBL
APPLETON       LGT RAIN  50  48  93 NE17      30.17R
CLINTONVILLE   CLOUDY    54  45  71 NE8       30.16S
OSHKOSH        LGT RAIN  51  46  83 NE17G25   30.16R
6HR MIN TEMP:  51; 6HR MAX TEMP:  56; 6HR PCP:  0.36;

$$

WIZ032>034-041-042-053>061-301900-
SOUTHWEST WISCONSIN

CITY           SKY/WX    TMP DP  RH WIND       PRES   REMARKS
LA CROSSE      CLOUDY    59  50  72 N12       30.16R
6HR MIN TEMP:  56; 6HR MAX TEMP:  59;

SPARTA         CLOUDY    55  53  94 N9        30.16S FOG
VIROQUA        CLOUDY    57  55  95 NE13      30.14R
BOSCOBEL       CLOUDY    60  52  74 NE9G21    30.13R
6HR MIN TEMP:  58; 6HR MAX TEMP:  62; 6HR PCP:  0.12;

PRAIRIE DU CHI DRIZZLE   57  52  84 NE10G16   30.12R
PLATTEVILLE    CLOUDY    56  55  95 N17       30.09R
$$

WIZ056-057-062-063-064-067-068-301900-
SOUTH CENTRAL WISCONSIN

CITY           SKY/WX    TMP DP  RH WIND       PRES   REMARKS
REEDSBURG      LGT RAIN  52  51  96 NE7       30.14R
BARABOO/DELLS  CLOUDY    52  49  90 NE8G22    30.14R
LONE ROCK      LGT RAIN  55  51  86 NE12G22   30.13R
MINERAL POINT  LGT RAIN  55  54  94 NE10G16   30.10R
MADISON        DRIZZLE   53  49  86 NE17      30.12R
6HR MIN TEMP:  53; 6HR MAX TEMP:  67; 6HR PCP:  0.15;

MIDDLETON      CLOUDY    54  52  92 NE17G26   30.13R
WATERTOWN      LGT RAIN N/A N/A N/A NE15G24   30.12R
MONROE         LGT RAIN  52  52 100 NE23G30   30.07R
JANESVILLE     LGT RAIN  54  52  94 NE15      30.09R FOG
$$

WIZ051-052-058>065-066-070>072-301900-
SOUTHEAST WISCONSIN

CITY           SKY/WX    TMP DP  RH WIND       PRES   REMARKS
MILWAUKEE      LGT RAIN  47  44  90 N22G37    30.11R FOG
6HR MIN TEMP:  47; 6HR MAX TEMP:  51; 6HR PCP:  0.13;

WAUKESHA       RAIN      48  48 100 NE17G29   30.13R
MILWAUKEE/TIMM LGT RAIN  48  45  87 N22       30.12R
RACINE         RAIN      47  44  90 N25G36    30.10R FOG
6HR MIN TEMP:  47; 6HR MAX TEMP:  57; 6HR PCP:  0.21;

BURLINGTON     RAIN      48  47  95 NE16G23   30.09R
KENOSHA        LGT RAIN  49  47  93 N18G28    30.08S
6HR MIN TEMP:  49; 6HR MAX TEMP:  67; 6HR PCP:  0.31;

FOND DU LAC    LGT RAIN  51  46  83 NE18G25   30.16R
6HR MIN TEMP:  51; 6HR MAX TEMP:  57; 6HR PCP:  0.31;

SHEBOYGAN      LGT RAIN  48  45  89 NE14      30.15R
6HR MIN TEMP:  48; 6HR MAX TEMP:  52; 6HR PCP:  0.22;

WEST BEND      LGT RAIN  48  45  87 NE14G22   30.13R
JUNEAU         RAIN      49  48  95 NE16G22   30.14R
$$

LSZ147-162-301900-
LAKE SUPERIOR

STATION/POSITION TIME  TEMP    WIND        PRES    WAVE
                       AIR SEA DIR/SP/G            HT/PER
                 (UTC) (F)     (DEG/KT/KT) (MB)    (FT/S)
W MID LAKE BUOY  1650   39 37   60/  8/ 10   N/A     2/ 4
DEVILS ISLAND    1700   42      50/  7/  8   N/A
PORT WING        1600   47      40/ 12/ 14   N/A
$$

LMZ867-665-643>646-301900-
LAKE MICHIGAN

STATION/POSITION TIME  TEMP    WIND        PRES    WAVE
                       AIR SEA DIR/SP/G            HT/PER
                 (UTC) (F)     (DEG/KT/KT) (MB)    (FT/S)
CHAMBERS ISLAND  1700   51     350/ 19/ 21   N/A
N MID LAKE BUOY  1650   43 37  320/  8/ 10   N/A     2/ 4
NORTHPORT PIER   1729   50     350/ 22/ 25   N/A
SISTER BAY       1718   51      10/ 20/ 29   N/A
ALGOMA LAKESHORE 1709           20/  7/ 11   N/A
KEWAUNEE LAKESHO 1700   47      30/  8/ 11   N/A
SHEBOYGAN LAKESH 1700   45      10/ 21/ 22   N/A
PORT WASHINGTON  1540   49      20/ 12/ 25   N/A
ATWATER BUOY     1700   47      20/ 25/ 29   N/A
MILWAUKEE LAKESH 1700   47      10/ 24/ 31   N/A
S MID LAKE BUOY  1650   41 38  330/ 10/ 12   N/A     1/ 3
KENOSHA   LAKESH 1700   46      10/ 26/ 31   N/A
$$

TC  - TEMPERATURE IN CELSIUS
VSB - VISIBILITY IN STATUTE MILES
WCI - WIND CHILL INDEX
HX  - HEAT INDEX



USA.gov is the U.S. government's official web portal to all federal, state and local government web resources and services.